Change the Weather History Date:

Tuesday, December 4, 2012

  Actual Average (KMIE) Record (KMIE)
Temperature  
Mean Temperature 49 °F 34 °F  
Max Temperature 92 °F 42 °F 67 °F (1982)
Min Temperature 39 °F 27 °F 3 °F (1991)
Degree Days  
Heating Degree Days 16 31  
Month to date heating degree days 120  
Since 1 July heating degree days 1255  
Cooling Degree Days 0 0  
Month to date cooling degree days 0  
Year to date cooling degree days 956  
Moisture  
Dew Point 45 °F    
Average Humidity 84    
Maximum Humidity 94    
Minimum Humidity 75    
Precipitation  
Precipitation 0.08 in 0.10 in 0.87 in (1978)
Month to date precipitation 0.40  
Year to date precipitation 37.64  
Sea Level Pressure  
Sea Level Pressure 30.07 in    
Wind  
Wind Speed 11 mph (West)    
Max Wind Speed 16 mph    
Max Gust Speed 22 mph    
Visibility 9 miles    
Events Rain    
T = Trace of Precipitation, MM = Missing Value Source: NWS Daily Summary

Daily Weather History Graph

Daily Weather History Graph

Search for Another Location

Airport or City:

Trip Planner

Search our weather history database for the weather conditions in past years. The results will help you decide how hot, cold, wet, or windy it might be!

Date:

Astronomy

Dec. 04, 2012 Rise Set
Actual Time 7:50 AM EST 5:16 PM EST
Civil Twilight 7:19 AM EST 5:46 PM EST
Nautical Twilight 6:45 AM EST 6:20 PM EST
Astronomical Twilight 6:12 AM EST 6:53 PM EST
Moon 11:03 PM EST (12/4) 11:43 AM EST (12/4)
Length of Visible Light 10h 26m
Length of Day
9h 25m
Waning Gibbous, 69% of the Moon is Illuminated
Dec 4
Waning Gibbous
Dec 6
Last Quarter
Dec 13
New
Dec 20
First Quarter
Dec 28
Full

Hourly Weather History & Observations

Time (EST) Temp. Windchill Dew Point Humidity Pressure Visibility Wind Dir Wind Speed Gust Speed Precip Events Conditions
12:15 AM 59.2 °F - 52.3 °F 78% 30.00 in 10.0 mi SSW 12.7 mph 18.4 mph N/A   Clear
12:35 AM 58.8 °F - 52.0 °F 78% 30.00 in 10.0 mi SSW 15.0 mph - N/A   Clear
12:55 AM 58.6 °F - 51.6 °F 77% 30.00 in 10.0 mi SSW 16.1 mph - N/A   Scattered Clouds
1:15 AM 58.8 °F - 51.3 °F 76% 29.99 in 10.0 mi SSW 15.0 mph - N/A   Mostly Cloudy
1:35 AM 58.3 °F - 51.1 °F 77% 29.99 in 10.0 mi SSW 15.0 mph - N/A   Scattered Clouds
1:55 AM 57.7 °F - 50.5 °F 77% 29.99 in 10.0 mi SSW 13.8 mph 18.4 mph N/A   Clear
2:15 AM 57.4 °F - 50.2 °F 77% 29.99 in 10.0 mi SSW 15.0 mph - N/A   Clear
2:35 AM 57.4 °F - 50.0 °F 76% 29.99 in 10.0 mi SSW 13.8 mph 20.7 mph N/A   Clear
2:55 AM 57.2 °F - 49.6 °F 76% 29.99 in 10.0 mi SSW 15.0 mph - N/A   Scattered Clouds
3:15 AM 57.2 °F - 49.5 °F 75% 29.99 in 10.0 mi SSW 13.8 mph - N/A   Clear
3:35 AM 56.7 °F - 49.3 °F 76% 29.99 in 10.0 mi SSW 12.7 mph 16.1 mph N/A   Scattered Clouds
3:55 AM 56.5 °F - 49.3 °F 77% 29.98 in 10.0 mi SSW 15.0 mph - N/A   Mostly Cloudy
4:15 AM 56.5 °F - 49.3 °F 77% 29.99 in 10.0 mi SSW 15.0 mph - N/A   Mostly Cloudy
4:35 AM 56.8 °F - 49.3 °F 76% 29.98 in 10.0 mi SSW 16.1 mph - N/A   Overcast
4:55 AM 57.2 °F - 49.5 °F 75% 29.98 in 10.0 mi SSW 13.8 mph - N/A   Overcast
5:15 AM 57.4 °F - 49.6 °F 75% 29.98 in 10.0 mi SSW 13.8 mph - N/A   Overcast
5:35 AM 57.6 °F - 50.0 °F 76% 29.98 in 10.0 mi SSW 16.1 mph 21.9 mph N/A   Overcast
5:55 AM 57.9 °F - 50.0 °F 75% 29.98 in 10.0 mi SSW 12.7 mph 18.4 mph N/A   Overcast
6:15 AM 57.9 °F - 50.4 °F 76% 29.98 in 10.0 mi SSW 13.8 mph 20.7 mph N/A   Overcast
6:35 AM 57.7 °F - 50.5 °F 77% 29.99 in 10.0 mi SW 13.8 mph - N/A   Overcast
6:55 AM 57.6 °F - 50.9 °F 78% 29.99 in 10.0 mi SSW 12.7 mph - N/A   Overcast
7:15 AM 57.4 °F - 51.4 °F 81% 29.99 in 7.0 mi SW 10.4 mph - N/A   Overcast
7:35 AM 56.8 °F - 51.8 °F 83% 29.99 in 10.0 mi SSW 9.2 mph - N/A   Overcast
7:55 AM 56.8 °F - 51.4 °F 82% 30.00 in 10.0 mi SW 9.2 mph - N/A   Overcast
8:15 AM 57.0 °F - 51.6 °F 82% 30.01 in 5.0 mi SW 10.4 mph - N/A   Haze
8:35 AM 56.8 °F - 52.5 °F 85% 30.01 in 7.0 mi SW 8.1 mph - N/A   Overcast
8:55 AM 57.2 °F - 53.2 °F 87% 30.01 in 2.5 mi West 11.5 mph - N/A   Overcast
9:15 AM 54.0 °F - 51.3 °F 91% 30.03 in 2.5 mi NNW 11.5 mph 16.1 mph N/A   Overcast
9:35 AM 50.0 °F - 48.2 °F 94% 30.04 in 4.0 mi NNW 11.5 mph - N/A   Overcast
9:55 AM 49.3 °F - 47.7 °F 94% 30.05 in 2.5 mi North 9.2 mph - N/A   Overcast
10:15 AM 48.6 °F - 46.8 °F 93% 30.04 in 5.0 mi North 10.4 mph - N/A Rain Light Rain
10:35 AM 48.2 °F - 46.2 °F 93% 30.07 in 7.0 mi NNW 9.2 mph - N/A   Overcast
10:55 AM 48.0 °F - 45.9 °F 92% 30.08 in 3.0 mi North 11.5 mph - N/A   Overcast
11:15 AM 47.5 °F - 45.5 °F 93% 30.08 in 3.0 mi North 9.2 mph - 0.01 in Rain Light Rain
11:35 AM 47.3 °F - 45.1 °F 92% 30.08 in 5.0 mi North 11.5 mph 16.1 mph 0.02 in Rain Light Rain
11:55 AM 46.9 °F - 44.2 °F 90% 30.09 in 7.0 mi North 9.2 mph - 0.02 in   Overcast
12:15 PM 46.0 °F 40.2 °F 41.0 °F 83% 30.08 in 10.0 mi North 12.7 mph - 0.01 in Rain Light Rain
12:35 PM 45.5 °F 41.8 °F 40.5 °F 83% 30.06 in 10.0 mi North 6.9 mph - 0.02 in Rain Light Rain
12:55 PM 45.5 °F 44.2 °F 40.8 °F 84% 30.07 in 7.0 mi North 3.5 mph - 0.03 in Rain Light Rain
1:15 PM 45.1 °F 41.4 °F 41.0 °F 85% 30.08 in 7.0 mi North 6.9 mph - 0.01 in Rain Light Rain
1:35 PM 45.0 °F 42.6 °F 40.8 °F 85% 30.07 in 7.0 mi North 4.6 mph - 0.02 in Rain Light Rain
1:55 PM 45.5 °F 42.5 °F 41.7 °F 87% 30.08 in 5.0 mi NW 5.8 mph - 0.02 in Rain Light Rain
2:15 PM 45.7 °F 44.4 °F 42.1 °F 87% 30.08 in 7.0 mi NNW 3.5 mph - 0.01 in Rain Light Rain
2:35 PM 46.0 °F 44.8 °F 42.3 °F 87% 30.08 in 7.0 mi NW 3.5 mph - 0.01 in   Overcast
2:55 PM 46.4 °F 44.3 °F 42.3 °F 85% 30.08 in 7.0 mi NW 4.6 mph - 0.01 in   Overcast
3:15 PM 46.9 °F - 42.8 °F 86% 30.08 in 10.0 mi NW 5.8 mph - N/A   Overcast
3:35 PM 47.5 °F - 42.6 °F 83% 30.09 in 10.0 mi WNW 6.9 mph - N/A   Overcast
3:55 PM 47.7 °F - 41.7 °F 80% 30.09 in 10.0 mi NW 4.6 mph - N/A   Overcast
4:15 PM 47.8 °F - 41.4 °F 78% 30.10 in 10.0 mi NW 5.8 mph - N/A   Overcast
4:35 PM 48.2 °F - 41.5 °F 78% 30.11 in 10.0 mi WNW 5.8 mph - N/A   Overcast
5:15 PM 47.8 °F - 42.1 °F 80% 30.12 in 10.0 mi NW 6.9 mph - N/A   Overcast
5:35 PM 47.5 °F - 42.1 °F 82% 30.13 in 10.0 mi WNW 4.6 mph - N/A   Scattered Clouds
5:55 PM 46.2 °F 43.3 °F 41.9 °F 85% 30.14 in 10.0 mi West 5.8 mph - N/A   Clear
6:15 PM 44.8 °F 41.6 °F 41.7 °F 89% 30.15 in 10.0 mi West 5.8 mph - N/A   Clear
6:55 PM 43.2 °F 40.5 °F 41.0 °F 92% 30.16 in 10.0 mi West 4.6 mph - N/A   Clear
7:15 PM 42.3 °F 38.6 °F 40.3 °F 93% 30.16 in 10.0 mi West 5.8 mph - N/A   Clear
7:35 PM 42.4 °F 37.5 °F 40.6 °F 93% 30.16 in 10.0 mi West 8.1 mph - N/A   Clear
7:55 PM 42.4 °F 38.8 °F 40.5 °F 93% 30.16 in 10.0 mi West 5.8 mph - N/A   Clear
8:15 PM 41.9 °F 38.2 °F 39.9 °F 93% 30.16 in 7.0 mi West 5.8 mph - N/A   Clear
8:35 PM 41.4 °F 36.8 °F 39.7 °F 94% 30.17 in 10.0 mi WSW 6.9 mph - N/A   Clear
8:55 PM 41.5 °F 37.8 °F 39.6 °F 93% 30.17 in 10.0 mi West 5.8 mph - N/A   Clear
9:15 PM 41.0 °F 36.4 °F 38.8 °F 92% 30.17 in 10.0 mi West 6.9 mph - N/A   Clear
9:35 PM 40.5 °F 36.5 °F 38.1 °F 91% 30.18 in 10.0 mi West 5.8 mph - N/A   Clear
9:55 PM 40.3 °F 36.3 °F 37.4 °F 89% 30.18 in 10.0 mi West 5.8 mph - N/A   Clear
10:15 PM 40.1 °F 35.3 °F 36.9 °F 88% 30.19 in 10.0 mi WSW 6.9 mph - N/A   Clear
10:35 PM 41.0 °F 36.4 °F 36.5 °F 84% 30.19 in 10.0 mi West 6.9 mph - N/A   Clear
10:55 PM 39.7 °F 34.3 °F 35.8 °F 86% 30.19 in 10.0 mi WSW 8.1 mph - N/A   Clear
11:15 PM 40.1 °F 35.3 °F 35.4 °F 83% 30.20 in 10.0 mi West 6.9 mph - N/A   Clear
11:35 PM 39.4 °F 35.2 °F 35.1 °F 84% 30.20 in 10.0 mi West 5.8 mph - N/A   Clear
11:55 PM 39.0 °F 34.0 °F 34.9 °F 85% 30.21 in 10.0 mi West 6.9 mph - N/A   Clear